Year,Month,Day,Hour,Minute,Value (Times are PST for temperature in C)
2013,08,09,00,00,16.60
2013,08,09,00,01,16.60
2013,08,09,00,02,16.60
2013,08,09,00,03,16.60
2013,08,09,00,04,16.40
2013,08,09,00,05,16.40
2013,08,09,00,06,16.40
2013,08,09,00,07,16.40
2013,08,09,00,08,16.40
2013,08,09,00,09,16.40
2013,08,09,00,10,16.40
2013,08,09,00,11,16.40
2013,08,09,00,12,16.40
2013,08,09,00,13,16.40
2013,08,09,00,14,16.40
2013,08,09,00,15,16.40
2013,08,09,00,16,16.40
2013,08,09,00,17,16.40
2013,08,09,00,18,16.40
2013,08,09,00,19,16.40
2013,08,09,00,20,16.40
2013,08,09,00,21,16.40
2013,08,09,00,22,16.40
2013,08,09,00,23,16.40
2013,08,09,00,24,16.40
2013,08,09,00,25,16.40
2013,08,09,00,26,16.40
2013,08,09,00,27,16.40
2013,08,09,00,28,16.40
2013,08,09,00,29,16.40
2013,08,09,00,30,16.40
2013,08,09,00,31,16.40
2013,08,09,00,32,16.40
2013,08,09,00,33,16.40
2013,08,09,00,34,16.40
2013,08,09,00,35,16.40
2013,08,09,00,36,16.40
2013,08,09,00,37,16.40
2013,08,09,00,38,16.40
2013,08,09,00,39,16.40
2013,08,09,00,40,16.40
2013,08,09,00,41,16.40
2013,08,09,00,42,16.40
2013,08,09,00,43,16.40
2013,08,09,00,44,16.40
2013,08,09,00,45,16.40
2013,08,09,00,46,16.40
2013,08,09,00,47,16.40
2013,08,09,00,48,16.40
2013,08,09,00,49,16.40
2013,08,09,00,50,16.40
2013,08,09,00,51,16.30
2013,08,09,00,52,16.30
2013,08,09,00,53,16.20
2013,08,09,00,54,16.20
2013,08,09,00,55,16.20
2013,08,09,00,56,16.10
2013,08,09,00,57,16.10
2013,08,09,00,58,16.10
2013,08,09,00,59,16.10
2013,08,09,01,00,15.90
2013,08,09,01,01,15.90
2013,08,09,01,02,15.90
2013,08,09,01,03,15.80
2013,08,09,01,04,15.80
2013,08,09,01,05,15.80
2013,08,09,01,06,15.80
2013,08,09,01,07,15.80
2013,08,09,01,08,15.80
2013,08,09,01,09,15.80
2013,08,09,01,10,15.80
2013,08,09,01,11,15.70
2013,08,09,01,12,15.70
2013,08,09,01,13,15.70
2013,08,09,01,14,15.70
2013,08,09,01,15,15.70
2013,08,09,01,16,15.70
2013,08,09,01,17,15.70
2013,08,09,01,18,15.70
2013,08,09,01,19,15.70
2013,08,09,01,20,15.70
2013,08,09,01,21,15.70
2013,08,09,01,22,15.70
2013,08,09,01,23,15.70
2013,08,09,01,24,15.70
2013,08,09,01,25,15.70
2013,08,09,01,26,15.70
2013,08,09,01,27,15.70
2013,08,09,01,28,15.70
2013,08,09,01,29,15.60
2013,08,09,01,30,15.60
2013,08,09,01,31,15.60
2013,08,09,01,32,15.60
2013,08,09,01,33,15.60
2013,08,09,01,34,15.60
2013,08,09,01,35,15.60
2013,08,09,01,36,15.60
2013,08,09,01,37,15.60
2013,08,09,01,38,15.60
2013,08,09,01,39,15.60
2013,08,09,01,40,15.60
2013,08,09,01,41,15.60
2013,08,09,01,42,15.60
2013,08,09,01,43,15.50
2013,08,09,01,44,15.50
2013,08,09,01,45,15.50
2013,08,09,01,46,15.50
2013,08,09,01,47,15.50
2013,08,09,01,48,15.50
2013,08,09,01,49,15.50
2013,08,09,01,50,15.40
2013,08,09,01,51,15.40
2013,08,09,01,52,15.40
2013,08,09,01,53,15.40
2013,08,09,01,54,15.40
2013,08,09,01,55,15.40
2013,08,09,01,56,15.30
2013,08,09,01,57,15.30
2013,08,09,01,58,15.30
2013,08,09,01,59,15.30
2013,08,09,02,00,15.30
2013,08,09,02,01,15.30
2013,08,09,02,02,15.30
2013,08,09,02,03,15.30
2013,08,09,02,04,15.30
2013,08,09,02,05,15.30
2013,08,09,02,06,15.30
2013,08,09,02,07,15.20
2013,08,09,02,08,15.20
2013,08,09,02,09,15.20
2013,08,09,02,10,15.20
2013,08,09,02,11,15.10
2013,08,09,02,12,15.10
2013,08,09,02,13,15.10
2013,08,09,02,14,15.10
2013,08,09,02,15,15.00
2013,08,09,02,16,15.00
2013,08,09,02,17,15.00
2013,08,09,02,18,14.90
2013,08,09,02,19,14.90
2013,08,09,02,20,14.90
2013,08,09,02,21,14.90
2013,08,09,02,22,14.90
2013,08,09,02,23,14.90
2013,08,09,02,24,14.90
2013,08,09,02,25,14.90
2013,08,09,02,26,14.90
2013,08,09,02,27,14.90
2013,08,09,02,28,14.90
2013,08,09,02,29,14.90
2013,08,09,02,30,14.90
2013,08,09,02,31,14.90
2013,08,09,02,32,14.80
2013,08,09,02,33,14.80
2013,08,09,02,34,14.80
2013,08,09,02,35,14.80
2013,08,09,02,36,14.80
2013,08,09,02,37,14.80
2013,08,09,02,38,14.80
2013,08,09,02,39,14.80
2013,08,09,02,40,14.80
2013,08,09,02,41,14.70
2013,08,09,02,42,14.70
2013,08,09,02,43,14.70
2013,08,09,02,44,14.60
2013,08,09,02,45,14.60
2013,08,09,02,46,14.60
2013,08,09,02,47,14.60
2013,08,09,02,48,14.60
2013,08,09,02,49,14.60
2013,08,09,02,50,14.60
2013,08,09,02,51,14.50
2013,08,09,02,52,14.50
2013,08,09,02,53,14.50
2013,08,09,02,54,14.40
2013,08,09,02,55,14.40
2013,08,09,02,56,14.40
2013,08,09,02,57,14.40
2013,08,09,02,58,14.50
2013,08,09,02,59,14.50
2013,08,09,03,00,14.50
2013,08,09,03,01,14.50
2013,08,09,03,02,14.50
2013,08,09,03,03,14.50
2013,08,09,03,04,14.50
2013,08,09,03,05,14.50
2013,08,09,03,06,14.50
2013,08,09,03,07,14.50
2013,08,09,03,08,14.40
2013,08,09,03,09,14.40
2013,08,09,03,10,14.40
2013,08,09,03,11,14.40
2013,08,09,03,12,14.40
2013,08,09,03,13,14.40
2013,08,09,03,14,14.40
2013,08,09,03,15,14.40
2013,08,09,03,16,14.40
2013,08,09,03,17,14.40
2013,08,09,03,18,14.40
2013,08,09,03,19,14.40
2013,08,09,03,20,14.40
2013,08,09,03,21,14.40
2013,08,09,03,22,14.40
2013,08,09,03,23,14.40
2013,08,09,03,24,14.40
2013,08,09,03,25,14.40
2013,08,09,06,14,13.50
2013,08,09,06,15,13.50
2013,08,09,06,16,13.50
2013,08,09,06,17,13.50
2013,08,09,06,18,13.50
2013,08,09,06,19,13.50
2013,08,09,06,20,13.50
2013,08,09,06,21,13.50
2013,08,09,06,22,13.60
2013,08,09,06,23,13.60
2013,08,09,06,24,13.60
2013,08,09,06,25,13.60
2013,08,09,06,26,13.50
2013,08,09,06,27,13.50
2013,08,09,06,28,13.50
2013,08,09,06,29,13.40
2013,08,09,06,30,13.40
2013,08,09,06,31,13.40
2013,08,09,06,32,13.30
2013,08,09,06,33,13.30
2013,08,09,06,34,13.30
2013,08,09,06,35,13.30
2013,08,09,06,36,13.30
2013,08,09,06,37,13.30
2013,08,09,06,38,13.30
2013,08,09,06,39,13.30
2013,08,09,06,40,13.20
2013,08,09,06,41,13.20
2013,08,09,06,42,13.20
2013,08,09,06,43,13.20
2013,08,09,06,44,13.20
2013,08,09,06,45,13.20
2013,08,09,06,46,13.20
2013,08,09,06,47,13.10
2013,08,09,06,48,13.20
2013,08,09,06,49,13.20
2013,08,09,06,50,13.20
2013,08,09,06,51,13.20
2013,08,09,06,52,13.20
2013,08,09,06,53,13.20
2013,08,09,06,54,13.20
2013,08,09,06,55,13.30
2013,08,09,06,56,13.30
2013,08,09,06,57,13.30
2013,08,09,06,58,13.30
2013,08,09,06,59,13.30
2013,08,09,07,00,13.30
2013,08,09,07,01,13.30
2013,08,09,07,02,13.40
2013,08,09,07,03,13.40
2013,08,09,07,04,13.40
2013,08,09,07,05,13.50
2013,08,09,07,06,13.50
2013,08,09,07,07,13.50
2013,08,09,07,08,13.60
2013,08,09,07,09,13.60
2013,08,09,07,10,13.70
2013,08,09,07,11,13.70
2013,08,09,07,12,13.70
2013,08,09,07,13,13.80
2013,08,09,07,14,13.80
2013,08,09,07,15,13.90
2013,08,09,07,16,13.90
2013,08,09,07,17,14.00
2013,08,09,07,18,14.00
2013,08,09,07,19,14.10
2013,08,09,07,20,14.10
2013,08,09,07,21,14.20
2013,08,09,07,22,14.20
2013,08,09,07,23,14.20
2013,08,09,07,24,14.20
2013,08,09,07,25,14.20
2013,08,09,07,26,14.30
2013,08,09,07,27,14.30
2013,08,09,07,28,14.30
2013,08,09,07,29,14.30
2013,08,09,07,30,14.30
2013,08,09,07,31,14.30
2013,08,09,07,32,14.30
2013,08,09,07,33,14.40
2013,08,09,07,34,14.40
2013,08,09,07,35,14.40
2013,08,09,07,36,14.40
2013,08,09,07,37,14.50
2013,08,09,07,38,14.50
2013,08,09,07,39,14.50
2013,08,09,07,40,14.60
2013,08,09,07,41,14.60
2013,08,09,07,42,14.70
2013,08,09,07,43,14.80
2013,08,09,07,44,14.80
2013,08,09,07,45,14.80
2013,08,09,07,46,14.90
2013,08,09,07,47,14.90
2013,08,09,07,48,14.90
2013,08,09,07,49,15.00
2013,08,09,07,50,15.00
2013,08,09,07,51,15.10
2013,08,09,07,52,15.10
2013,08,09,07,53,15.20
2013,08,09,07,54,15.20
2013,08,09,07,55,15.30
2013,08,09,07,56,15.30
2013,08,09,07,57,15.30
2013,08,09,07,58,15.40
2013,08,09,07,59,15.50
2013,08,09,08,00,15.60
2013,08,09,08,01,15.70
2013,08,09,08,02,15.80
2013,08,09,08,03,15.80
2013,08,09,08,04,15.90
2013,08,09,08,05,16.10
2013,08,09,08,06,16.20
2013,08,09,08,07,16.40
2013,08,09,08,08,16.60
2013,08,09,08,09,16.60
2013,08,09,08,10,16.70
2013,08,09,08,11,16.80
2013,08,09,08,12,16.80
2013,08,09,08,13,16.80
2013,08,09,08,14,16.90
2013,08,09,08,15,16.90
2013,08,09,08,16,17.00
2013,08,09,08,17,17.00
2013,08,09,08,18,17.00
2013,08,09,08,19,17.10
2013,08,09,08,20,17.10
2013,08,09,08,21,17.20
2013,08,09,08,22,17.20
2013,08,09,08,23,17.20
2013,08,09,08,24,17.20
2013,08,09,08,25,17.20
2013,08,09,08,26,17.20
2013,08,09,08,27,17.10
2013,08,09,08,28,17.10
2013,08,09,08,29,17.10
2013,08,09,08,30,17.10
2013,08,09,08,31,17.10
2013,08,09,08,32,17.20
2013,08,09,08,33,17.20
2013,08,09,08,34,17.20
2013,08,09,08,35,17.20
2013,08,09,08,36,17.20
2013,08,09,08,37,17.20
2013,08,09,08,38,17.20
2013,08,09,08,39,17.30
2013,08,09,08,40,17.20
2013,08,09,08,41,17.30
2013,08,09,08,42,17.30
2013,08,09,08,43,17.30
2013,08,09,08,44,17.30
2013,08,09,08,45,17.30
2013,08,09,08,46,17.30
2013,08,09,08,47,17.40
2013,08,09,08,48,17.40
2013,08,09,08,49,17.50
2013,08,09,08,50,17.50
2013,08,09,08,51,17.50
2013,08,09,08,52,17.50
2013,08,09,08,53,17.50
2013,08,09,08,54,17.60
2013,08,09,08,55,17.60
2013,08,09,08,56,17.60
2013,08,09,08,57,17.60
2013,08,09,08,58,17.70
2013,08,09,08,59,17.70
2013,08,09,09,00,17.80
2013,08,09,09,01,17.80
2013,08,09,09,02,17.90
2013,08,09,09,03,17.90
2013,08,09,09,04,18.10
2013,08,09,09,05,18.20
2013,08,09,09,06,18.20
2013,08,09,09,07,18.20
2013,08,09,09,08,18.20
2013,08,09,09,09,18.30
2013,08,09,09,10,18.30
2013,08,09,09,11,18.30
2013,08,09,09,12,18.30
2013,08,09,09,13,18.30
2013,08,09,09,14,18.30
2013,08,09,09,15,18.40
2013,08,09,09,16,18.40
2013,08,09,09,17,18.40
2013,08,09,09,18,18.50
2013,08,09,09,19,18.50
2013,08,09,09,20,18.60
2013,08,09,09,21,18.60
2013,08,09,09,22,18.70
2013,08,09,09,23,18.70
2013,08,09,09,24,18.80
2013,08,09,09,25,18.90
2013,08,09,09,26,18.90
2013,08,09,09,27,18.90
2013,08,09,09,28,18.90
2013,08,09,09,29,18.90
2013,08,09,09,30,18.90
2013,08,09,09,31,18.90
2013,08,09,09,32,18.90
2013,08,09,09,33,19.10
2013,08,09,09,34,19.10
2013,08,09,09,35,19.10
2013,08,09,09,36,19.20
2013,08,09,09,37,19.20
2013,08,09,09,38,19.20
2013,08,09,09,39,19.20
2013,08,09,09,40,19.30
2013,08,09,09,41,19.30
2013,08,09,09,42,19.30
2013,08,09,09,43,19.30
2013,08,09,09,44,19.40
2013,08,09,09,45,19.40
2013,08,09,09,46,19.40
2013,08,09,09,47,19.40
2013,08,09,09,48,19.40
2013,08,09,09,49,19.40
2013,08,09,09,50,19.50
2013,08,09,09,51,19.50
2013,08,09,09,52,19.60
2013,08,09,09,53,19.70
2013,08,09,09,54,19.80
2013,08,09,09,55,19.80
2013,08,09,09,56,19.80
2013,08,09,09,57,19.90
2013,08,09,09,58,19.90
2013,08,09,09,59,19.90
2013,08,09,10,00,19.90
2013,08,09,10,01,20.10
2013,08,09,10,02,20.20
2013,08,09,10,03,20.20
2013,08,09,10,04,20.30
2013,08,09,10,05,20.40
2013,08,09,10,06,20.50
2013,08,09,10,07,20.60
2013,08,09,10,08,20.70
2013,08,09,10,09,20.80
2013,08,09,10,10,20.90
2013,08,09,10,11,21.00
2013,08,09,10,12,21.00
2013,08,09,10,13,21.10
2013,08,09,10,14,21.20
2013,08,09,10,15,21.20
2013,08,09,10,16,21.30
2013,08,09,10,17,21.30
2013,08,09,10,18,21.30
2013,08,09,10,19,21.30
2013,08,09,10,20,21.30
2013,08,09,10,21,21.30
2013,08,09,10,22,21.40
2013,08,09,10,23,21.60
2013,08,09,10,24,21.60
2013,08,09,10,25,21.70
2013,08,09,10,26,21.70
2013,08,09,10,27,21.80
2013,08,09,10,28,21.90
2013,08,09,10,29,21.90
2013,08,09,10,30,22.00
2013,08,09,10,31,22.00
2013,08,09,10,32,22.10
2013,08,09,10,33,22.10
2013,08,09,10,34,22.20
2013,08,09,10,35,22.20
2013,08,09,10,36,22.30
2013,08,09,10,37,22.40
2013,08,09,10,38,22.50
2013,08,09,10,39,22.60
2013,08,09,10,40,22.70
2013,08,09,10,41,22.80
2013,08,09,10,42,22.90
2013,08,09,10,43,23.10
2013,08,09,10,44,23.30
2013,08,09,10,45,23.30
2013,08,09,10,46,23.30
2013,08,09,10,47,23.30
2013,08,09,10,48,23.30
2013,08,09,10,49,23.30
2013,08,09,10,50,23.20
2013,08,09,10,51,23.20
2013,08,09,10,52,23.20
2013,08,09,10,53,23.20
2013,08,09,10,54,23.20
2013,08,09,10,55,23.30
2013,08,09,10,56,23.30
2013,08,09,10,57,23.30
2013,08,09,10,58,23.30
2013,08,09,10,59,23.40
2013,08,09,11,00,23.60
2013,08,09,11,01,23.70
2013,08,09,11,02,23.70
2013,08,09,11,03,23.70
2013,08,09,11,04,23.70
2013,08,09,11,05,23.70
2013,08,09,11,06,23.70
2013,08,09,11,07,23.70
2013,08,09,11,08,23.70
2013,08,09,11,09,23.70
2013,08,09,11,10,23.70
2013,08,09,11,11,23.70
2013,08,09,11,12,23.70
2013,08,09,11,13,23.80
2013,08,09,11,14,23.80
2013,08,09,11,15,23.90
2013,08,09,11,16,24.10
2013,08,09,11,17,24.10
2013,08,09,11,18,24.10
2013,08,09,11,19,24.10
2013,08,09,11,20,24.10
2013,08,09,11,21,24.20
2013,08,09,11,22,24.20
2013,08,09,11,23,24.20
2013,08,09,11,24,24.20
2013,08,09,11,25,24.20
2013,08,09,11,26,24.30
2013,08,09,11,27,24.30
2013,08,09,11,28,24.30
2013,08,09,11,29,24.30
2013,08,09,11,30,24.30
2013,08,09,11,31,24.30
2013,08,09,11,32,24.30
2013,08,09,11,33,24.30
2013,08,09,11,34,24.40
2013,08,09,11,35,24.40
2013,08,09,11,36,24.40
2013,08,09,11,37,24.50
2013,08,09,11,38,24.50
2013,08,09,11,39,24.60
2013,08,09,11,40,24.70
2013,08,09,11,41,24.80
2013,08,09,11,42,24.90
2013,08,09,11,43,25.10
2013,08,09,11,44,25.20
2013,08,09,11,45,25.30
2013,08,09,11,46,25.40
2013,08,09,11,47,25.40
2013,08,09,11,48,25.50
2013,08,09,11,49,25.60
2013,08,09,11,50,25.70
2013,08,09,11,51,25.80
2013,08,09,11,52,25.90
2013,08,09,11,53,25.90
2013,08,09,11,54,25.90
2013,08,09,11,55,26.00
2013,08,09,11,56,26.00
2013,08,09,11,57,26.10
2013,08,09,11,58,26.20
2013,08,09,11,59,26.30
2013,08,09,12,01,26.40
2013,08,09,12,02,26.60
2013,08,09,12,03,26.60
2013,08,09,12,04,26.80
2013,08,09,12,05,26.90
2013,08,09,12,06,27.10
2013,08,09,12,07,27.10
2013,08,09,12,08,27.20
2013,08,09,12,09,27.30
2013,08,09,12,10,27.30
2013,08,09,12,11,27.30
2013,08,09,12,12,27.30
2013,08,09,12,13,27.40
2013,08,09,12,14,27.40
2013,08,09,12,15,27.60
2013,08,09,12,16,27.60
2013,08,09,12,17,27.70
2013,08,09,12,18,27.80
2013,08,09,12,19,27.90
2013,08,09,12,20,27.90
2013,08,09,12,21,27.90
2013,08,09,12,22,28.00
2013,08,09,12,23,28.00
2013,08,09,12,24,27.90
2013,08,09,12,25,27.90
2013,08,09,12,26,27.70
2013,08,09,12,27,27.60
2013,08,09,12,28,27.30
2013,08,09,12,29,27.30
2013,08,09,12,30,26.90
2013,08,09,12,31,26.80
2013,08,09,12,32,26.70
2013,08,09,12,33,26.70
2013,08,09,12,34,26.60
2013,08,09,12,35,26.60
2013,08,09,12,36,26.60
2013,08,09,12,37,26.60
2013,08,09,12,38,26.60
2013,08,09,12,39,26.60
2013,08,09,12,40,26.60
2013,08,09,12,41,26.60
2013,08,09,12,42,26.60
2013,08,09,12,43,26.60
2013,08,09,12,44,26.70
2013,08,09,12,45,26.60
2013,08,09,12,46,26.60
2013,08,09,12,47,26.60
2013,08,09,12,48,26.40
2013,08,09,12,49,26.30
2013,08,09,12,50,26.30
2013,08,09,12,51,26.20
2013,08,09,12,52,26.20
2013,08,09,12,53,26.10
2013,08,09,12,54,26.10
2013,08,09,12,55,26.00
2013,08,09,12,56,26.00
2013,08,09,12,57,26.00
2013,08,09,12,58,26.00
2013,08,09,12,59,26.10
2013,08,09,13,00,26.10
2013,08,09,13,01,26.20
2013,08,09,13,02,26.20
2013,08,09,13,03,26.30
2013,08,09,13,04,26.30
2013,08,09,13,05,26.30
2013,08,09,13,06,26.30
2013,08,09,13,07,26.30
2013,08,09,13,08,26.30
2013,08,09,13,09,26.20
2013,08,09,13,10,26.10
2013,08,09,13,11,25.90
2013,08,09,13,12,25.80
2013,08,09,13,13,25.70
2013,08,09,13,14,25.80
2013,08,09,13,15,25.70
2013,08,09,13,16,25.70
2013,08,09,13,17,25.60
2013,08,09,13,18,25.60
2013,08,09,13,19,25.70
2013,08,09,13,20,25.70
2013,08,09,13,21,25.80
2013,08,09,13,22,25.80
2013,08,09,13,23,25.90
2013,08,09,13,24,26.00
2013,08,09,13,25,26.10
2013,08,09,13,26,26.20
2013,08,09,13,27,26.30
2013,08,09,13,28,26.40
2013,08,09,13,29,26.60
2013,08,09,13,30,26.60
2013,08,09,13,31,26.60
2013,08,09,13,32,26.70
2013,08,09,13,33,26.80
2013,08,09,13,34,26.90
2013,08,09,13,35,26.90
2013,08,09,13,36,27.10
2013,08,09,13,37,27.10
2013,08,09,13,38,26.90
2013,08,09,13,39,26.80
2013,08,09,13,40,26.80
2013,08,09,13,41,26.80
2013,08,09,13,42,26.80
2013,08,09,13,43,26.80
2013,08,09,13,44,26.80
2013,08,09,13,45,26.90
2013,08,09,13,46,27.10
2013,08,09,13,47,27.20
2013,08,09,13,48,27.30
2013,08,09,13,49,27.30
2013,08,09,13,50,27.30
2013,08,09,13,51,27.30
2013,08,09,13,52,27.30
2013,08,09,13,53,27.20
2013,08,09,13,54,27.20
2013,08,09,13,55,27.20
2013,08,09,13,56,27.20
2013,08,09,13,57,27.20
2013,08,09,13,58,27.20
2013,08,09,13,59,27.20
2013,08,09,14,00,27.30
2013,08,09,14,01,27.30
2013,08,09,14,02,27.30
2013,08,09,14,03,27.40
2013,08,09,14,04,27.60
2013,08,09,14,05,27.60
2013,08,09,14,06,27.60
2013,08,09,14,07,27.60
2013,08,09,14,08,27.70
2013,08,09,14,09,27.80
2013,08,09,14,10,27.80
2013,08,09,14,11,27.80
2013,08,09,14,12,27.90
2013,08,09,14,13,27.90
2013,08,09,14,14,27.90
2013,08,09,14,15,27.90
2013,08,09,14,16,27.80
2013,08,09,14,17,27.80
2013,08,09,14,18,27.80
2013,08,09,14,19,27.80
2013,08,09,14,20,27.90
2013,08,09,14,21,27.90
2013,08,09,14,22,28.00
2013,08,09,14,23,28.20
2013,08,09,14,24,28.20
2013,08,09,14,25,28.40
2013,08,09,14,26,28.60
2013,08,09,14,27,28.80
2013,08,09,14,28,28.80
2013,08,09,14,29,28.90
2013,08,09,14,30,28.90
2013,08,09,14,31,28.90
2013,08,09,14,32,28.90
2013,08,09,14,33,28.90
2013,08,09,14,34,28.90
2013,08,09,14,35,28.90
2013,08,09,14,36,28.90
2013,08,09,14,37,28.90
2013,08,09,14,38,28.90
2013,08,09,14,39,28.90
2013,08,09,14,40,29.10
2013,08,09,14,41,29.10
2013,08,09,14,42,29.10
2013,08,09,14,43,29.10
2013,08,09,14,44,29.10
2013,08,09,14,45,29.20
2013,08,09,14,46,29.20
2013,08,09,14,47,29.10
2013,08,09,14,48,29.20
2013,08,09,14,49,29.20
2013,08,09,14,50,29.30
2013,08,09,14,51,29.40
2013,08,09,14,52,29.40
2013,08,09,14,53,29.40
2013,08,09,14,54,29.40
2013,08,09,14,55,29.40
2013,08,09,14,56,29.40
2013,08,09,14,57,29.40
2013,08,09,14,58,29.40
2013,08,09,14,59,29.40
2013,08,09,15,00,29.30
2013,08,09,15,01,29.30
2013,08,09,15,02,29.40
2013,08,09,15,03,29.40
2013,08,09,15,04,29.50
2013,08,09,15,05,29.60
2013,08,09,15,06,29.60
2013,08,09,15,07,29.60
2013,08,09,15,08,29.60
2013,08,09,15,09,29.70
2013,08,09,15,10,29.70
2013,08,09,15,11,29.80
2013,08,09,15,12,29.80
2013,08,09,15,13,29.80
2013,08,09,15,14,29.80
2013,08,09,15,15,29.80
2013,08,09,15,16,29.80
2013,08,09,15,17,29.80
2013,08,09,15,18,29.80
2013,08,09,15,19,29.80
2013,08,09,15,20,29.80
2013,08,09,15,21,29.80
2013,08,09,15,22,29.90
2013,08,09,15,23,29.90
2013,08,09,15,24,30.10
2013,08,09,15,25,30.10
2013,08,09,15,26,30.20
2013,08,09,15,27,30.30
2013,08,09,15,28,30.40
2013,08,09,15,29,30.40
2013,08,09,15,30,30.30
2013,08,09,15,31,30.30
2013,08,09,15,32,30.30
2013,08,09,15,33,30.30
2013,08,09,15,34,30.40
2013,08,09,15,35,30.40
2013,08,09,15,36,30.40
2013,08,09,15,37,30.30
2013,08,09,15,38,30.40
2013,08,09,15,39,30.40
2013,08,09,15,40,30.40
2013,08,09,15,41,30.60
2013,08,09,15,42,30.40
2013,08,09,15,43,30.30
2013,08,09,15,44,30.30
2013,08,09,15,45,30.30
2013,08,09,15,46,30.30
2013,08,09,15,47,30.40
2013,08,09,15,48,30.60
2013,08,09,15,49,30.70
2013,08,09,15,50,30.80
2013,08,09,15,51,30.80
2013,08,09,15,52,30.90
2013,08,09,15,53,30.90
2013,08,09,15,54,30.90
2013,08,09,15,55,31.00
2013,08,09,15,56,31.00
2013,08,09,15,57,31.10
2013,08,09,15,58,31.20
2013,08,09,15,59,31.30
2013,08,09,16,00,31.30
2013,08,09,16,01,31.30
2013,08,09,16,02,31.30
2013,08,09,16,03,31.20
2013,08,09,16,04,31.10
2013,08,09,16,05,31.00
2013,08,09,16,06,31.00
2013,08,09,16,07,31.00
2013,08,09,16,08,30.90
2013,08,09,16,09,30.90
2013,08,09,16,10,30.90
2013,08,09,16,11,30.90
2013,08,09,16,12,30.90
2013,08,09,16,13,30.90
2013,08,09,16,14,30.90
2013,08,09,16,15,30.90
2013,08,09,16,16,30.90
2013,08,09,16,17,30.90
2013,08,09,16,18,30.90
2013,08,09,16,19,30.90
2013,08,09,16,20,30.90
2013,08,09,16,21,31.00
2013,08,09,16,22,31.00
2013,08,09,16,23,31.00
2013,08,09,16,24,30.90
2013,08,09,16,25,30.80
2013,08,09,16,26,30.70
2013,08,09,16,27,30.60
2013,08,09,16,28,30.60
2013,08,09,16,29,30.40
2013,08,09,16,30,30.40
2013,08,09,16,31,30.40
2013,08,09,16,32,30.30
2013,08,09,16,33,30.30
2013,08,09,16,34,30.20
2013,08,09,16,35,30.20
2013,08,09,16,36,30.20
2013,08,09,16,37,30.20
2013,08,09,16,38,30.20
2013,08,09,16,39,30.10
2013,08,09,16,40,30.10
2013,08,09,16,41,30.10
2013,08,09,16,42,30.10
2013,08,09,16,43,29.90
2013,08,09,16,44,29.80
2013,08,09,16,45,29.70
2013,08,09,16,46,29.70
2013,08,09,16,47,29.70
2013,08,09,16,48,29.60
2013,08,09,16,49,29.60
2013,08,09,16,50,29.70
2013,08,09,16,51,29.70
2013,08,09,16,52,29.70
2013,08,09,16,53,29.60
2013,08,09,16,54,29.60
2013,08,09,16,55,29.50
2013,08,09,16,56,29.40
2013,08,09,16,57,29.40
2013,08,09,16,58,29.40
2013,08,09,16,59,29.40
2013,08,09,17,00,29.40
2013,08,09,17,01,29.50
2013,08,09,17,02,29.50
2013,08,09,17,03,29.50
2013,08,09,17,04,29.50
2013,08,09,17,05,29.50
2013,08,09,17,06,29.40
2013,08,09,17,07,29.40
2013,08,09,17,08,29.40
2013,08,09,17,09,29.30
2013,08,09,17,10,29.20
2013,08,09,17,11,29.20
2013,08,09,17,12,29.10
2013,08,09,17,13,29.10
2013,08,09,17,14,28.90
2013,08,09,17,15,28.90
2013,08,09,17,16,28.80
2013,08,09,17,17,28.80
2013,08,09,17,18,28.70
2013,08,09,17,19,28.60
2013,08,09,17,20,28.60
2013,08,09,17,21,28.40
2013,08,09,17,22,28.40
2013,08,09,17,23,28.40
2013,08,09,17,24,28.40
2013,08,09,17,25,28.40
2013,08,09,17,26,28.40
2013,08,09,17,27,28.40
2013,08,09,17,28,28.40
2013,08,09,17,29,28.60
2013,08,09,17,30,28.60
2013,08,09,17,31,28.60
2013,08,09,17,32,28.60
2013,08,09,17,33,28.40
2013,08,09,17,34,28.40
2013,08,09,17,35,28.40
2013,08,09,17,36,28.40
2013,08,09,17,37,28.30
2013,08,09,17,38,28.30
2013,08,09,17,39,28.30
2013,08,09,17,40,28.20
2013,08,09,17,41,28.10
2013,08,09,17,42,28.10
2013,08,09,17,43,28.10
2013,08,09,17,44,28.10
2013,08,09,17,45,28.10
2013,08,09,17,46,28.10
2013,08,09,17,47,28.10
2013,08,09,17,48,28.10
2013,08,09,17,49,28.20
2013,08,09,17,50,28.30
2013,08,09,17,51,28.30
2013,08,09,17,52,28.30
2013,08,09,17,53,28.30
2013,08,09,17,54,28.30
2013,08,09,17,55,28.30
2013,08,09,17,56,28.30
2013,08,09,17,57,28.30
2013,08,09,17,58,28.30
2013,08,09,17,59,28.30
2013,08,09,18,00,28.30
2013,08,09,18,01,28.30
2013,08,09,18,02,28.30
2013,08,09,18,03,28.40
2013,08,09,18,04,28.40
2013,08,09,18,05,28.40
2013,08,09,18,06,28.40
2013,08,09,18,07,28.40
2013,08,09,18,08,28.40
2013,08,09,18,09,28.40
2013,08,09,18,10,28.40
2013,08,09,18,11,28.40
2013,08,09,18,12,28.40
2013,08,09,18,13,28.40
2013,08,09,18,14,28.30
2013,08,09,18,15,28.30
2013,08,09,18,16,28.20
2013,08,09,18,17,28.20
2013,08,09,18,18,28.10
2013,08,09,18,19,28.10
2013,08,09,18,20,28.10
2013,08,09,18,21,28.10
2013,08,09,18,22,28.10
2013,08,09,18,23,28.20
2013,08,09,18,24,28.20
2013,08,09,18,25,28.20
2013,08,09,18,26,28.20
2013,08,09,18,27,28.20
2013,08,09,18,28,28.10
2013,08,09,18,29,28.10
2013,08,09,18,30,28.00
2013,08,09,18,31,28.00
2013,08,09,18,32,27.90
2013,08,09,18,33,27.90
2013,08,09,18,34,27.90
2013,08,09,18,35,27.80
2013,08,09,18,36,27.80
2013,08,09,18,37,27.70
2013,08,09,18,38,27.70
2013,08,09,18,39,27.70
2013,08,09,18,40,27.70
2013,08,09,18,41,27.70
2013,08,09,18,42,27.70
2013,08,09,18,43,27.60
2013,08,09,18,44,27.60
2013,08,09,18,45,27.40
2013,08,09,18,46,27.30
2013,08,09,18,47,27.30
2013,08,09,18,48,27.30
2013,08,09,18,49,27.30
2013,08,09,18,50,27.30
2013,08,09,18,51,27.30
2013,08,09,18,52,27.30
2013,08,09,18,53,27.30
2013,08,09,18,54,27.30
2013,08,09,18,55,27.30
2013,08,09,18,56,27.30
2013,08,09,18,57,27.30
2013,08,09,18,58,27.30
2013,08,09,18,59,27.30
2013,08,09,19,00,27.30
2013,08,09,19,01,27.30
2013,08,09,19,02,27.30
2013,08,09,19,03,27.30
2013,08,09,19,04,27.20
2013,08,09,19,05,27.20
2013,08,09,19,06,27.20
2013,08,09,19,07,27.20
2013,08,09,19,08,27.20
2013,08,09,19,09,27.20
2013,08,09,19,10,27.20
2013,08,09,19,11,27.10
2013,08,09,19,12,27.10
2013,08,09,19,13,26.90
2013,08,09,19,14,26.90
2013,08,09,19,15,26.90
2013,08,09,19,16,26.80
2013,08,09,19,17,26.70
2013,08,09,19,18,26.70
2013,08,09,19,19,26.60
2013,08,09,19,20,26.60
2013,08,09,19,21,26.60
2013,08,09,19,22,26.40
2013,08,09,19,23,26.40
2013,08,09,19,24,26.30
2013,08,09,19,25,26.30
2013,08,09,19,26,26.30
2013,08,09,19,27,26.30
2013,08,09,19,28,26.30
2013,08,09,19,29,26.30
2013,08,09,19,30,26.30
2013,08,09,19,31,26.30
2013,08,09,19,32,26.20
2013,08,09,19,33,26.20
2013,08,09,19,34,26.10
2013,08,09,19,35,26.10
2013,08,09,19,36,26.10
2013,08,09,19,37,26.10
2013,08,09,19,38,26.10
2013,08,09,19,39,26.10
2013,08,09,19,40,26.00
2013,08,09,19,41,26.00
2013,08,09,19,42,25.90
2013,08,09,19,43,25.90
2013,08,09,19,44,25.90
2013,08,09,19,45,25.90
2013,08,09,19,46,25.80
2013,08,09,19,47,25.80
2013,08,09,19,48,25.80
2013,08,09,19,49,25.80
2013,08,09,19,50,25.80
2013,08,09,19,51,25.70
2013,08,09,19,52,25.60
2013,08,09,19,53,25.60
2013,08,09,19,54,25.50
2013,08,09,19,55,25.50
2013,08,09,19,56,25.50
2013,08,09,19,57,25.50
2013,08,09,19,58,25.40
2013,08,09,19,59,25.40
2013,08,09,20,00,25.20
2013,08,09,20,01,25.20
2013,08,09,20,02,25.10
2013,08,09,20,03,25.00
2013,08,09,20,04,24.90
2013,08,09,20,05,24.90
2013,08,09,20,06,24.90
2013,08,09,20,07,24.90
2013,08,09,20,08,24.80